0 HST 1 20580U 90037B 26151.19125608 .00007916 00000-0 25254-3 0 9995 2 20580 28.4718 196.7185 0001522 329.3794 30.6713 15.30562779785961 0 ISS (ZARYA) 1 25544U 98067A 26151.16242250 .00012606 00000-0 23226-3 0 9990 2 25544 51.6337 24.3812 0007232 116.8819 243.2910 15.49515140569113 0 CXO 1 25867U 99040B 26153.50844987 .00000595 00000-0 00000-0 0 9991 2 25867 55.9180 117.0902 7859056 310.3424 0.0689 0.37796441 17265